[[{"header":{"parameterUnit":"m.s-1","parameterCategory":1,"la1":30.2991,"la2":30.254,"lo1":-89.0895,"lo2":-89.0444,"dy":0.0017,"dx":0.0017,"nx":28,"ny":28,"refTime":"2024-08-29T09:00:00:Z","depth":0,"parameterNumber":2,"parameterNumberName":"U-component_of_WINDS"},"data":[0,0,0,0,0,0,0,0,0,0,0,0,0,0,0,0,0,0,0,0,0,0,0,0,0,0,0,0,0,0,0,0,0,0,0,0,0,0,0,0,0,0,0,0,0,0,0,0,0,0,0,0,0,0,0,0,0,0,-4.1668,-4.1669,0,-4.1763,-4.1764,-4.1765,-4.1725,-4.1723,-4.1721,-4.1719,-4.1814,-4.1818,-4.1823,0,0,0,0,0,0,0,0,0,0,0,0,0,-4.1451,-4.1455,-4.1668,-4.1669,-4.1671,-4.1763,-4.1764,-4.1765,-4.1726,-4.1723,-4.172,-4.1718,-4.1812,-4.1818,-4.1823,0,0,0,0,0,0,0,0,0,0,0,0,0,-4.1545,-4.1456,-4.1668,-4.1662,-4.1662,-4.1763,-4.1764,-4.1766,-4.1726,-4.1723,-4.1719,-4.1716,-4.1811,-4.1817,-4.1824,-4.1935,0,0,-4.1846,-4.1849,0,0,0,0,0,0,0,0,-4.154,-4.1553,-4.1662,-4.1662,-4.1663,-4.1729,-4.1722,-4.1823,-4.1727,-4.1702,-4.1719,-4.1715,-4.1788,-4.1797,-4.1822,-4.194,-4.1944,-4.1846,-4.185,-4.1853,-4.1855,0,0,0,0,0,0,0,-4.1533,-4.1549,-4.1706,-4.1663,-4.1664,-4.1654,-4.1663,-4.1741,-4.1763,-4.1704,-4.1701,-4.1713,-4.1788,-4.1815,-4.1824,-4.1945,-4.1846,-4.1852,-4.1856,-4.1859,-4.2157,-4.2161,0,0,0,0,0,0,-4.1527,-4.1544,-4.1703,-4.1708,-4.1592,-4.166,-4.1671,-4.1711,-4.1762,-4.1767,-4.1716,-4.1711,-4.1805,-4.1816,-4.1827,-4.1959,-4.1853,-4.186,-4.1864,-4.2153,-4.2158,-4.2162,0,0,0,0,0,0,-4.1522,-4.1542,-4.1699,-4.1625,-4.1645,-4.1668,-4.1713,-4.1715,-4.1742,-4.1771,-4.1775,-4.174,-4.1803,-4.1817,-4.1908,-4.1961,-4.1863,-4.1869,-4.2149,-4.2155,-4.216,-4.2224,0,0,0,0,0,0,-4.1516,-4.154,-4.1583,-4.1627,-4.1649,-4.1779,-4.1716,-4.1719,-4.1754,-4.1749,-4.1795,-4.1799,-4.1801,-4.1898,-4.1915,-4.1969,-4.1875,-4.2144,-4.2152,-4.2158,-4.2217,-4.2231,-4.2243,0,0,0,0,0,-4.1509,-4.1598,-4.1586,-4.1605,-4.1703,-4.1782,-4.1795,-4.1796,-4.1759,-4.1802,-4.182,-4.1797,-4.1954,-4.1908,-4.1927,-4.1984,-4.2141,-4.2149,-4.2158,-4.2211,-4.2228,-4.2243,0,0,0,0,0,0,-4.156,-4.1603,-4.159,-4.1696,-4.1736,-4.1776,-4.183,-4.1815,-4.1865,-4.1858,-4.1857,-4.1868,-4.1961,-4.1982,-4.193,-4.2093,-4.2041,-4.2054,-4.2076,-4.2092,-4.2105,-4.2097,-4.1881,0,0,0,0,0,-4.1583,-4.1645,-4.1679,-4.1769,-4.179,-4.1807,-4.1841,-4.1839,-4.188,-4.1896,-4.1921,-4.1961,-4.2019,-4.2057,-4.2112,-4.2221,-4.2229,-4.2269,-4.2282,-4.2293,-4.2303,-4.2359,-4.2377,-4.2189,-4.2189,-4.2189,0,0,-4.1632,-4.1664,-4.1703,-4.178,-4.1811,-4.1873,-4.1821,-4.189,-4.1936,-4.1906,-4.1993,-4.2014,-4.2058,-4.2158,-4.2203,-4.2178,-4.2357,-4.2303,-4.2311,-4.2316,-4.237,-4.2388,-4.2403,-4.2195,-4.2194,-4.2193,0,0,-4.1753,-4.1784,-4.1861,-4.1893,-4.194,-4.195,-4.1969,-4.2011,-4.2023,-4.2111,-4.209,-4.2144,-4.2245,-4.2276,-4.2306,-4.2438,-4.2418,-4.2457,-4.2523,-4.2578,-4.2593,-4.2606,-4.2651,-4.2667,-4.2467,-4.2467,-4.2467,0,-4.1808,-4.1902,-4.1903,-4.1973,-4.2007,-4.1984,-4.2061,-4.2092,-4.2154,-4.2178,-4.2149,-4.2273,-4.2302,-4.2408,-4.244,-4.2466,-4.2485,-4.245,-4.2591,-4.2604,-4.2616,-4.2659,-4.2676,-4.2471,-4.2471,-4.247,-4.247,0,-4.1966,-4.2031,-4.2088,-4.2148,-4.2189,-4.2263,-4.2274,-4.2315,-4.2309,-4.2322,-4.241,-4.2444,-4.2505,-4.253,-4.2525,-4.2635,-4.2618,-4.2591,-4.2538,-4.2638,-4.2678,-4.2695,-4.2477,-4.2476,-4.2474,-4.2473,0,0,-4.212,-4.218,-4.2201,-4.2227,-4.2277,-4.2327,-4.2399,-4.2459,-4.2492,-4.2537,-4.2595,-4.2681,-4.2655,-4.2689,-4.2688,-4.2737,-4.2837,-4.2703,-4.2704,-4.2724,-4.2957,-4.2975,-4.2994,-4.2825,-4.2828,-4.283,-4.2952,0,-4.2243,-4.2369,-4.2372,-4.2487,-4.2546,-4.2525,-4.2588,-4.2624,-4.2639,-4.2691,-4.2706,-4.2766,-4.2729,-4.2749,-4.2796,-4.2814,-4.2883,-4.2806,-4.2878,-4.288,-4.2865,-4.3016,-4.3036,-4.3149,-4.2968,-4.2971,-4.2973,0,-4.2403,-4.2451,-4.2572,-4.2612,-4.2637,-4.2693,-4.2747,-4.2797,-4.2838,-4.2845,-4.2882,-4.2874,-4.2946,-4.2893,-4.2991,-4.2939,-4.2969,-4.2982,-4.2986,-4.2991,-4.2931,-4.3022,-4.3186,-4.3202,-4.2998,-4.2996,-4.2994,0,-4.25,-4.2596,-4.268,-4.2704,-4.2753,-4.2793,-4.2815,-4.2853,-4.2888,-4.2935,-4.2957,-4.3012,-4.3042,-4.3085,-4.309,-4.3052,-4.3188,-4.3137,-4.3195,-4.3194,-4.3222,-4.322,-4.339,-4.3246,-4.3246,-4.3245,-4.3245,0,-4.2636,-4.271,-4.2725,-4.2776,-4.2858,-4.2861,-4.2942,-4.2961,-4.2994,-4.3048,-4.3034,-4.3085,-4.3091,-4.3143,-4.3149,-4.3228,-4.3242,-4.3249,-4.3249,-4.3249,-4.3247,-4.3266,-4.3258,-4.325,-4.3249,-4.3248,-4.3247,0,-4.2758,-4.2771,-4.2861,-4.29,-4.2911,-4.297,-4.3003,-4.3052,-4.3065,-4.3133,-4.3149,-4.3169,-4.323,-4.3241,-4.3313,-4.3316,-4.341,-4.3404,-4.3396,-4.3395,-4.3451,-4.3445,-4.3638,-4.3662,-4.3504,-4.3505,-4.3507,0,-4.2842,-4.2899,-4.2944,-4.2979,-4.3003,-4.306,-4.3096,-4.31,-4.3137,-4.3188,-4.323,-4.3289,-4.3337,-4.3435,-4.3455,-4.351,-4.3503,-4.3567,-4.3511,-4.3508,-4.3501,-4.3497,-4.3501,-4.3577,-4.3578,-4.358,-4.3581,0,-4.299,-4.2993,-4.3045,-4.3099,-4.3142,-4.3184,-4.3225,-4.3254,-4.3264,-4.3307,-4.3368,-4.3405,-4.3478,-4.3537,-4.3591,-4.3613,-4.3598,-4.3599,-4.3615,-4.3614,-4.3606,-4.3609,-4.3423,-4.3594,-4.3592,-4.3592,-4.3591,-4.359,-4.3094,-4.3143,-4.3181,-4.3239,-4.327,-4.3307,-4.3354,-4.3373,-4.3425,-4.3484,-4.3484,-4.3551,-4.359,-4.3661,-4.3687,-4.3739,-4.3718,-4.3742,-4.3747,-4.3752,-4.3756,-4.36,-4.3749,-4.3749,-4.3748,-4.3748,-4.3748,0,-4.3239,-4.3263,-4.3316,-4.3372,-4.3417,-4.3401,-4.3444,-4.3482,-4.3542,-4.3579,-4.3626,-4.3696,-4.3753,-4.3778,-4.3833,-4.387,-4.3865,-4.3884,-4.388,-4.3885,-4.3773,-4.3753,-4.3888,-4.3887,-4.3887,-4.3887,-4.3887,-4.3887,-4.332,-4.34,-4.3408,-4.3502,-4.3525,-4.3591,-4.3617,-4.3651,-4.3681,-4.376,-4.3807,-4.3823,-4.3855,-4.3912,-4.3963,-4.3969,-4.3988,-4.4011,-4.4013,-4.3908,-4.3893,-4.388,-4.386,-4.4016,-4.4016,-4.4121,-4.4122,-4.4123]},{"header":{"parameterUnit":"m.s-1","parameterCategory":1,"la1":30.2991,"la2":30.254,"lo1":-89.0895,"lo2":-89.0444,"dy":0.0017,"dx":0.0017,"nx":28,"ny":28,"refTime":"2024-08-29T09:00:00:Z","depth":0,"parameterNumber":3,"parameterNumberName":"V-component_of_WINDS"},"data":[0,0,0,0,0,0,0,0,0,0,0,0,0,0,0,0,0,0,0,0,0,0,0,0,0,0,0,0,0,0,0,0,0,0,0,0,0,0,0,0,0,0,0,0,0,0,0,0,0,0,0,0,0,0,0,0,0,0,2.85,2.8499,0,2.8403,2.8402,2.8401,2.8274,2.8271,2.8269,2.8267,2.8167,2.8166,2.8166,0,0,0,0,0,0,0,0,0,0,0,0,0,2.8573,2.8572,2.85,2.8498,2.8497,2.8403,2.8402,2.8401,2.8274,2.8271,2.8269,2.8266,2.8167,2.8166,2.8166,0,0,0,0,0,0,0,0,0,0,0,0,0,2.8515,2.8572,2.85,2.8423,2.8415,2.8404,2.8402,2.84,2.8274,2.8271,2.8268,2.8265,2.8168,2.8166,2.8165,2.8222,0,0,2.8162,2.8162,0,0,0,0,0,0,0,0,2.8519,2.8513,2.8435,2.8428,2.8419,2.8347,2.8391,2.834,2.8275,2.8328,2.8267,2.8264,2.8229,2.8223,2.8212,2.8217,2.8213,2.8162,2.8161,2.8161,2.8161,0,0,0,0,0,0,0,2.8523,2.8516,2.8461,2.8434,2.8424,2.8393,2.8381,2.8381,2.8297,2.8323,2.8313,2.8304,2.8224,2.8213,2.8208,2.8211,2.8162,2.8161,2.816,2.816,2.8256,2.8259,0,0,0,0,0,0,2.8538,2.852,2.8464,2.8459,2.8462,2.8394,2.8381,2.8373,2.8297,2.8282,2.8307,2.8298,2.8217,2.821,2.8205,2.8264,2.8161,2.816,2.8159,2.8253,2.8257,2.8261,0,0,0,0,0,0,2.8541,2.8535,2.8468,2.8487,2.8476,2.8396,2.8389,2.8373,2.8362,2.8285,2.8269,2.8311,2.8214,2.8206,2.8218,2.8258,2.8159,2.8158,2.8249,2.8254,2.8259,2.8384,0,0,0,0,0,0,2.8543,2.8536,2.8557,2.8488,2.8475,2.8484,2.8391,2.8374,2.836,2.8349,2.8284,2.827,2.8211,2.8221,2.8217,2.8255,2.8158,2.8245,2.8252,2.8257,2.8376,2.8392,2.8407,0,0,0,0,0,2.8546,2.8596,2.8559,2.8553,2.85,2.8487,2.848,2.841,2.8364,2.8384,2.8335,2.8272,2.8256,2.8223,2.8218,2.8256,2.8242,2.825,2.8257,2.8369,2.8389,2.8406,0,0,0,0,0,0,2.867,2.8585,2.8543,2.8572,2.8538,2.8466,2.8488,2.8434,2.8412,2.8401,2.8316,2.8303,2.8325,2.8292,2.8257,2.8306,2.824,2.8246,2.8326,2.8345,2.836,2.8366,2.8157,0,0,0,0,0,2.8702,2.8699,2.8624,2.8657,2.8642,2.8569,2.8561,2.8511,2.8471,2.8456,2.8407,2.8371,2.8357,2.835,2.8333,2.8372,2.8355,2.8396,2.8411,2.8424,2.843,2.8447,2.8463,2.8284,2.8284,2.8284,0,0,2.8765,2.8718,2.8721,2.8681,2.8648,2.8647,2.8557,2.8559,2.8557,2.8456,2.8464,2.8428,2.8381,2.8407,2.8416,2.838,2.8476,2.8433,2.8444,2.8443,2.8456,2.8473,2.8488,2.8289,2.8288,2.8288,0,0,2.8879,2.8845,2.8867,2.8837,2.8789,2.874,2.8746,2.8682,2.8654,2.8661,2.8585,2.8581,2.856,2.853,2.8512,2.8617,2.8558,2.8614,2.8693,2.871,2.8724,2.8736,2.8772,2.8786,2.862,2.8621,2.8621,0,2.8963,2.8958,2.8885,2.8892,2.8876,2.8786,2.8808,2.8782,2.8732,2.8722,2.8684,2.8655,2.8618,2.8634,2.866,2.8649,2.8652,2.8619,2.8729,2.874,2.875,2.8783,2.8796,2.8628,2.8627,2.8626,2.8625,0,2.9063,2.9061,2.9085,2.9039,2.9026,2.9041,2.897,2.8966,2.8918,2.8873,2.8881,2.8834,2.8805,2.8806,2.8759,2.8816,2.8795,2.8744,2.8675,2.8775,2.8804,2.8816,2.8637,2.8635,2.8633,2.8631,0,0,2.925,2.9165,2.9175,2.9152,2.9094,2.909,2.9101,2.9074,2.9071,2.904,2.9046,2.9031,2.8983,2.8963,2.8912,2.8928,2.9011,2.8874,2.8871,2.8899,2.9069,2.9106,2.9122,2.8974,2.8976,2.8977,2.9072,0,2.9351,2.9364,2.93,2.9329,2.9326,2.9241,2.925,2.9215,2.9175,2.9165,2.9119,2.9109,2.9048,2.9035,2.9047,2.8999,2.9044,2.8991,2.8976,2.8976,2.8988,2.9137,2.9176,2.9268,2.9084,2.9086,2.9087,0,2.9469,2.9445,2.9475,2.9415,2.9411,2.942,2.939,2.9383,2.9342,2.9311,2.929,2.9231,2.9236,2.9173,2.9179,2.9144,2.9135,2.911,2.9112,2.9106,2.9036,2.9133,2.9296,2.9309,2.9105,2.9103,2.9102,0,2.96,2.9575,2.9589,2.9573,2.9504,2.9512,2.9484,2.944,2.9428,2.9402,2.9393,2.9369,2.9354,2.9336,2.9272,2.9232,2.9285,2.9217,2.9258,2.926,2.927,2.927,2.9432,2.9269,2.9269,2.9269,2.9268,0,2.9717,2.9738,2.9647,2.9655,2.9676,2.9602,2.9625,2.9588,2.955,2.9549,2.9476,2.9477,2.9394,2.9385,2.9336,2.9347,2.9342,2.9316,2.9302,2.9321,2.9324,2.9311,2.9302,2.9272,2.9271,2.9271,2.927,0,2.9865,2.9805,2.9814,2.9749,2.9733,2.9751,2.9695,2.97,2.9655,2.9655,2.9651,2.9581,2.9567,2.9503,2.9474,2.944,2.9468,2.9442,2.9482,2.9472,2.9516,2.9512,2.9673,2.969,2.952,2.9522,2.9523,0,2.9943,2.9957,2.9894,2.9888,2.9863,2.9856,2.9843,2.9772,2.9762,2.9717,2.9727,2.9708,2.9688,2.967,2.9616,2.9593,2.9565,2.9623,2.9561,2.9579,2.9563,2.9562,2.9562,2.9635,2.9638,2.9639,2.9641,0,3.0086,3.0056,3.0041,3.0016,3.0004,2.9981,2.9953,2.9953,2.9874,2.9866,2.9852,2.9837,2.9808,2.9789,2.9758,2.9727,2.9671,2.9662,2.9669,2.9688,2.9709,2.9696,2.9515,2.9657,2.9656,2.9655,2.9654,2.9653,3.0199,3.0207,3.0164,3.015,3.0122,3.0098,3.01,3.0056,3.0043,3.0014,2.9973,2.9964,2.9922,2.9874,2.9849,2.984,2.9808,2.982,2.9823,2.9826,2.9835,2.9713,2.9834,2.9834,2.9833,2.9833,2.9833,0,3.0336,3.0305,3.0293,3.0257,3.0246,3.0196,3.0163,3.0157,3.015,3.0117,3.01,3.0083,3.0065,3.001,2.9986,2.999,2.9963,2.9985,2.9983,2.9977,2.9866,2.9861,3.0007,3.0007,3.0007,3.0007,3.0007,3.0007,3.0406,3.0417,3.0383,3.0379,3.0347,3.0338,3.0324,3.0301,3.0274,3.0259,3.0244,3.0209,3.0167,3.0139,3.012,3.0104,3.0098,3.0129,3.0104,3.0001,2.9985,2.9969,2.9963,3.0129,3.0129,3.0215,3.0216,3.0217]}]]